Home   Weather   Mobile   Past weeks

Flag for USA Past Weather in Mobile, Alabama, USA — Yesterday and Last 2 Weeks

Now
85 °F

Passing clouds.


Feels Like: 93 °F
Forecast: 76 / 94 °F
Wind: 3 mph from West

Location: Mobile Downtown Airport

Current Time: Jul 27, 2017 at 8:06:30 pm

Latest Report: Jul 27, 2017 at 6:53 pm


Visibility: 10 mi

Pressure: 29.96 "Hg

Humidity: 72%

Dew Point: 75 °F

Location of MobileLocation

Past Weather in Mobile — Graph

°F

Mobile Temperature Yesterday

Maximum temperature yesterday: 94 °F (at 2:53 pm)
Minimum temperature yesterday: 76 °F (at 5:53 am)
Average temperature yesterday: 83 °F

High & Low Weather Summary for the Past Weeks

 TemperatureHumidityPressure
High96 °F (Jul 20, 2:53 pm)100% (Jul 14, 1:53 am)30.19 "Hg (Jul 14, 1:53 am)
Low74 °F (Jul 16, 6:22 am)46% (Jul 20, 3:53 pm)29.91 "Hg (Jul 23, 7:53 pm)
Average82 °F85%30.05 "Hg
* Reported Jul 12 6:36 pm — Jul 27 6:53 pm, Mobile. Weather by CustomWeather, © 2017

Note: Actual official high and low records may vary slightly from our data, if they occured in-between our weather recording intervals... More about our weather records

Advertising

Mobile Weather History for the Previous 24 Hours

Scroll right to see more
 ConditionsComfort  
Time TempWeatherWind HumidityBarometerVisibility
6:53 pm
Thu, Jul 27
85 °FPassing clouds.3 mph72%29.96 "Hg10 mi
5:53 pm84 °FPassing clouds.5 mph72%29.96 "Hg10 mi
4:53 pm82 °FScattered clouds.10 mph79%29.99 "Hg10 mi
4:31 pm81 °FBroken clouds.6 mph82%29.99 "Hg10 mi
4:06 pm81 °FThundershowers. Scattered clouds.9 mph82%29.99 "Hg10 mi
3:42 pm85 °FScattered clouds.15 mph77%30.00 "Hg10 mi
2:53 pm80 °FHeavy rain. Broken clouds.8 mph76%30.00 "Hg3 mi
2:43 pm82 °FHeavy rain. Broken clouds.N/A74%30.02 "Hg1 mi
2:05 pm94 °FThundershowers. Scattered clouds.3 mph60%30.01 "Hg10 mi
1:33 pm92 °FThundershowers. Scattered clouds.No wind62%30.02 "Hg7 mi
12:53 pm92 °FScattered clouds.5 mph64%30.03 "Hg10 mi
11:53 am91 °FScattered clouds.6 mph66%30.05 "Hg10 mi
10:53 am90 °FSunny.7 mph70%30.06 "Hg10 mi
9:53 am89 °FSunny.6 mph70%30.07 "Hg10 mi
8:53 am86 °FSunny.3 mph77%30.07 "Hg10 mi
7:53 am81 °FSunny.No wind88%30.06 "Hg10 mi
6:53 am78 °FSunny.3 mph93%30.05 "Hg10 mi
5:53 am76 °FClear.No wind97%30.05 "Hg10 mi
4:53 am77 °FClear.3 mph94%30.03 "Hg10 mi
3:53 am77 °FClear.No wind90%30.03 "Hg10 mi
3:24 am78 °FClear.No wind87%30.03 "Hg10 mi
2:53 am78 °FClear.No wind84%30.03 "Hg10 mi
1:53 am76 °FClear.3 mph94%30.04 "Hg10 mi
12:53 am78 °FClear.No wind87%30.06 "Hg10 mi
11:53 pm
Wed, Jul 26
78 °FClear.No wind90%30.07 "Hg10 mi
10:53 pm80 °FClear.5 mph85%30.08 "Hg10 mi
9:53 pm81 °FClear.3 mph88%30.08 "Hg10 mi
8:53 pm83 °FPassing clouds.No wind77%30.06 "Hg10 mi
Weather by CustomWeather, © 2017

See weather overviewHow to use our weather pages